Havre, MT

9:50 AM MDT on August 20, 2017 (GMT -0600)
Havre City-County

Weather History for KHVR - August, 2014

Change the Weather History Date:

Saturday, August 16, 2014

  Actual Average Record
Temperature  
Mean Temperature 70 °F 68 °F  
Max Temperature 84 °F 85 °F 101 °F (1971)
Min Temperature 56 °F 52 °F 38 °F (2012)
Degree Days  
Heating Degree Days 0 1  
Month to date heating degree days 0 14  
Since 1 June heating degree days 175 177  
Since 1 July heating degree days 0 44  
Cooling Degree Days 5 5  
Month to date cooling degree days 138 99  
Year to date cooling degree days 352 320  
Since 1 June cooling degree days 345 309  
Growing Degree Days 20 (Base 50)    
Moisture  
Dew Point 52 °F    
Average Humidity 63    
Maximum Humidity 100    
Minimum Humidity 26    
Precipitation  
Precipitation 0.02 in 0.04 in 0.65 in (1989)
Month to date precipitation 0.50 0.56  
Year to date precipitation 7.14 8.12  
Snow  
Snow 0.00 in 0.00 in T in (1954)
Month to date snowfall 0.0 0.0  
Since 1 June snowfall 0.0 0.0  
Since 1 July snowfall 0.0 0.0  
Snow Depth 0.00 in    
Sea Level Pressure  
Sea Level Pressure 29.91 in    
Wind  
Wind Speed 10 mph (WSW)    
Max Wind Speed 23 mph    
Max Gust Speed 31 mph    
Visibility 10 miles    
Events Rain    
T = Trace of Precipitation, MM = Missing Value Source: NWS Daily Summary

Daily Weather History Graph

Daily Weather History Graph

Search for Another Location

Airport or City:

Trip Planner

Search our weather history database for the weather conditions in past years. The results will help you decide how hot, cold, wet, or windy it might be!

Date:

Astronomy

Aug. 16, 2014 Rise Set
Actual Time 6:14 AM MDT 8:31 PM MDT
Civil Twilight 5:39 AM MDT 9:05 PM MDT
Nautical Twilight 4:56 AM MDT 9:48 PM MDT
Astronomical Twilight 4:06 AM MDT 10:37 PM MDT
Moon 11:40 PM MDT (8/16) 1:39 PM MDT (8/16)
Length of Visible Light 15h 26m
Length of Day
14h 17m
Waning Gibbous, 58% of the Moon is Illuminated
Aug 16
Waning Gibbous
Aug 17
Last Quarter
Aug 25
New
Sep 2
First Quarter
Sep 8
Full

Hourly Weather History & Observations

Time (MDT) Temp. Dew Point Humidity Pressure Visibility Wind Dir Wind Speed Gust Speed Precip Events Conditions
12:53 AM 61.0 °F 57.9 °F 90% 29.96 in 10.0 mi Calm Calm - N/A   Clear
1:53 AM 59.0 °F 57.0 °F 93% 29.93 in 10.0 mi NW 5.8 mph - N/A   Clear
2:53 AM 57.9 °F 57.0 °F 97% 29.92 in 10.0 mi Calm Calm - N/A   Clear
3:53 AM 57.0 °F 55.9 °F 96% 29.94 in 10.0 mi Calm Calm - N/A   Clear
4:53 AM 57.9 °F 55.9 °F 93% 29.93 in 10.0 mi Calm Calm - N/A   Clear
5:53 AM 57.9 °F 55.0 °F 90% 29.93 in 10.0 mi SW 8.1 mph - N/A   Clear
6:53 AM 57.9 °F 54.0 °F 87% 29.96 in 10.0 mi SW 10.4 mph - N/A   Clear
7:53 AM 61.0 °F 54.0 °F 78% 29.96 in 10.0 mi SW 15.0 mph - N/A   Clear
8:53 AM 66.0 °F 53.1 °F 63% 29.95 in 10.0 mi SW 20.7 mph 26.5 mph N/A   Clear
9:53 AM 69.1 °F 53.1 °F 57% 29.94 in 10.0 mi SW 18.4 mph - N/A   Clear
10:53 AM 73.0 °F 53.1 °F 49% 29.93 in 10.0 mi SW 17.3 mph 24.2 mph N/A   Clear
11:53 AM 77.0 °F 51.1 °F 40% 29.92 in 10.0 mi West 17.3 mph - N/A   Clear
12:53 PM 78.1 °F 48.0 °F 35% 29.91 in 10.0 mi SW 13.8 mph 25.3 mph N/A   Partly Cloudy
1:53 PM 80.1 °F 48.0 °F 32% 29.90 in 10.0 mi West 12.7 mph 21.9 mph N/A   Partly Cloudy
2:53 PM 82.0 °F 48.9 °F 31% 29.89 in 10.0 mi West 13.8 mph - N/A   Partly Cloudy
3:53 PM 84.0 °F 46.0 °F 26% 29.87 in 10.0 mi WSW 17.3 mph 24.2 mph 0.00 in   Partly Cloudy
4:53 PM 82.0 °F 45.0 °F 27% 29.86 in 10.0 mi WSW 13.8 mph - N/A   Scattered Clouds
5:12 PM 75.9 °F 50.0 °F 40% 29.91 in 10.0 mi WNW 20.7 mph 25.3 mph 0.00 in Rain Light Rain
5:53 PM 79.0 °F 50.0 °F 36% 29.86 in 10.0 mi Calm Calm - 0.02 in   Mostly Cloudy
6:53 PM 73.9 °F 50.0 °F 43% 29.87 in 10.0 mi West 11.5 mph - N/A   Scattered Clouds
7:53 PM 73.0 °F 51.1 °F 46% 29.88 in 10.0 mi West 9.2 mph - 0.00 in   Overcast
8:53 PM 64.9 °F 53.1 °F 65% 29.89 in 10.0 mi SW 8.1 mph - 0.00 in   Partly Cloudy
9:53 PM 64.9 °F 54.0 °F 68% 29.91 in 10.0 mi West 6.9 mph - N/A   Partly Cloudy
10:53 PM 62.1 °F 54.0 °F 75% 29.91 in 10.0 mi South 8.1 mph - N/A   Scattered Clouds
11:53 PM 61.0 °F 54.0 °F 78% 29.91 in 10.0 mi SSW 9.2 mph - N/A   Scattered Clouds